| time (UTC) | temp F | wind direction | speed MPH | gust MPH | rain 1hr in | rain 24hr in | rain mn in | humidity % | barometer mb |
| 20260508234533 | 62 | 325 | 7.0 | 14.0 | 0.00 | 0.00 | 0.00 | 61 | 1022.1 |
| 20260508233034 | 63 | 273 | 6.0 | 13.0 | 0.00 | 0.00 | 0.00 | 60 | 1021.9 |
| 20260508231532 | 63 | 287 | 7.0 | 14.0 | 0.00 | 0.00 | 0.00 | 59 | 1022.0 |
| 20260508230040 | 64 | 286 | 4.0 | 10.0 | 0.00 | 0.00 | 0.00 | 58 | 1022.1 |
| 20260508224530 | 63 | 288 | 8.0 | 12.0 | 0.00 | 0.00 | 0.00 | 65 | 1022.1 |
| 20260508223031 | 64 | 267 | 7.0 | 15.0 | 0.00 | 0.00 | 0.00 | 57 | 1022.1 |
| 20260508221527 | 63 | 310 | 6.0 | 14.0 | 0.00 | 0.00 | 0.00 | 57 | 1022.0 |
| 20260508220028 | 62 | 272 | 7.0 | 15.0 | 0.00 | 0.00 | 0.00 | 58 | 1022.0 |
| 20260508214529 | 63 | 273 | 6.0 | 17.0 | 0.00 | 0.00 | 0.00 | 58 | 1022.2 |
| 20260508213028 | 63 | 297 | 3.0 | 13.0 | 0.00 | 0.00 | 0.00 | 59 | 1022.1 |
| 20260508211533 | 63 | 275 | 5.0 | 14.0 | 0.00 | 0.00 | 0.00 | 57 | 1022.1 |
| 20260508210118 | 61 | 295 | 6.0 | 15.0 | 0.00 | 0.00 | 0.00 | 59 | 1022.1 |
| 20260508204515 | 60 | 293 | 4.0 | 18.0 | 0.00 | 0.00 | 0.00 | 62 | 1022.0 |
| 20260508203013 | 60 | 238 | 4.0 | 12.0 | 0.00 | 0.00 | 0.00 | 61 | 1021.8 |
| 20260508201509 | 59 | 227 | 5.0 | 15.0 | 0.00 | 0.00 | 0.00 | 64 | 1021.8 |
| 20260508200010 | 59 | 263 | 7.0 | 10.0 | 0.00 | 0.00 | 0.00 | 62 | 1022.0 |
| 20260508194516 | 58 | 268 | 5.0 | 13.0 | 0.00 | 0.00 | 0.00 | 62 | 1021.9 |
| 20260508193002 | 57 | 212 | 3.0 | 18.0 | 0.00 | 0.00 | 0.00 | 66 | 1021.9 |
| 20260508191605 | 57 | 255 | 5.0 | 15.0 | 0.00 | 0.00 | 0.00 | 66 | 1021.8 |
| 20260508190057 | 56 | 242 | 7.0 | 14.0 | 0.00 | 0.00 | 0.00 | 67 | 1021.9 |
| 20260508184605 | 54 | 184 | 8.0 | 14.0 | 0.00 | 0.00 | 0.00 | 68 | 1021.9 |
| 20260508183123 | 54 | 265 | 4.0 | 11.0 | 0.00 | 0.00 | 0.00 | 71 | 1021.9 |
| 20260508181603 | 54 | 280 | 5.0 | 16.0 | 0.00 | 0.00 | 0.00 | 72 | 1021.7 |
| 20260508180048 | 54 | 223 | 6.0 | 16.0 | 0.00 | 0.00 | 0.00 | 70 | 1021.5 |
| 20260508174552 | 54 | 227 | 8.0 | 17.0 | 0.00 | 0.00 | 0.00 | 70 | 1021.3 |
| 20260508173043 | 54 | 198 | 9.0 | 15.0 | 0.00 | 0.00 | 0.00 | 73 | 1021.2 |
| 20260508171541 | 53 | 259 | 8.0 | 14.0 | 0.00 | 0.00 | 0.00 | 75 | 1021.0 |
| 20260508170037 | 53 | 259 | 5.0 | 13.0 | 0.00 | 0.00 | 0.00 | 77 | 1020.7 |
| 20260508164539 | 52 | 198 | 0.0 | 5.0 | 0.00 | 0.00 | 0.00 | 77 | 1020.6 |
| 20260508163034 | 52 | 226 | 2.0 | 8.0 | 0.00 | 0.00 | 0.00 | 80 | 1020.6 |
| 20260508161533 | 52 | 188 | 3.0 | 10.0 | 0.00 | 0.00 | 0.00 | 79 | 1020.3 |
| 20260508160033 | 52 | 162 | 4.0 | 9.0 | 0.00 | 0.00 | 0.00 | 79 | 1020.3 |
| 20260508154546 | 52 | 168 | 4.0 | 12.0 | 0.00 | 0.00 | 0.00 | 79 | 1020.4 |
| 20260508153031 | 52 | 181 | 2.0 | 10.0 | 0.00 | 0.00 | 0.00 | 79 | 1020.4 |
| 20260508151533 | 51 | 147 | 3.0 | 11.0 | 0.00 | 0.00 | 0.00 | 82 | 1020.4 |
| 20260508150034 | 50 | 196 | 6.0 | 14.0 | 0.00 | 0.00 | 0.00 | 82 | 1020.5 |
| 20260508144525 | 50 | 183 | 7.0 | 14.0 | 0.00 | 0.00 | 0.00 | 84 | 1020.4 |
| 20260508143023 | 49 | 188 | 6.0 | 10.0 | 0.00 | 0.00 | 0.00 | 84 | 1020.1 |
| 20260508141526 | 49 | 221 | 5.0 | 10.0 | 0.00 | 0.00 | 0.00 | 85 | 1019.8 |
| 20260508140017 | 49 | 178 | 3.0 | 11.0 | 0.00 | 0.00 | 0.00 | 86 | 1019.6 |
| 20260508134514 | 49 | 194 | 2.0 | 11.0 | 0.00 | 0.00 | 0.00 | 86 | 1019.3 |
| 20260508133011 | 49 | 155 | 2.0 | 7.0 | 0.00 | 0.00 | 0.00 | 86 | 1019.1 |
| 20260508131509 | 49 | 187 | 5.0 | 8.0 | 0.00 | 0.00 | 0.00 | 86 | 1018.8 |
| 20260508130011 | 49 | 190 | 4.0 | 10.0 | 0.00 | 0.00 | 0.00 | 85 | 1018.8 |
| 20260508124507 | 50 | 207 | 3.0 | 9.0 | 0.00 | 0.00 | 0.00 | 85 | 1018.5 |
| 20260508123003 | 50 | 214 | 3.0 | 9.0 | 0.00 | 0.00 | 0.00 | 84 | 1018.4 |
| 20260508121503 | 50 | 207 | 2.0 | 6.0 | 0.00 | 0.00 | 0.00 | 85 | 1018.3 |
| 20260508120100 | 50 | 201 | 2.0 | 6.0 | 0.00 | 0.00 | 0.00 | 85 | 1018.2 |
| 20260508114603 | 50 | 201 | 4.0 | 8.0 | 0.00 | 0.00 | 0.00 | 85 | 1018.0 |
| 20260508113056 | 50 | 198 | 3.0 | 7.0 | 0.00 | 0.00 | 0.00 | 85 | 1017.9 |
| 20260508111555 | 50 | 206 | 1.0 | 9.0 | 0.00 | 0.00 | 0.00 | 85 | 1017.7 |
| 20260508110052 | 50 | 199 | 1.0 | 6.0 | 0.00 | 0.00 | 0.00 | 86 | 1017.7 |
| 20260508104549 | 50 | 199 | 1.0 | 4.0 | 0.00 | 0.00 | 0.00 | 86 | 1017.5 |
| 20260508103052 | 50 | 200 | 2.0 | 7.0 | 0.00 | 0.00 | 0.00 | 86 | 1017.4 |
| 20260508101547 | 50 | 196 | 2.0 | 7.0 | 0.00 | 0.00 | 0.00 | 87 | 1017.3 |
| 20260508100104 | 50 | 220 | 2.0 | 4.0 | 0.00 | 0.00 | 0.00 | 86 | 1017.2 |
| 20260508094551 | 51 | 220 | 1.0 | 4.0 | 0.00 | 0.00 | 0.00 | 85 | 1017.2 |
| 20260508093044 | 51 | 220 | 2.0 | 4.0 | 0.00 | 0.00 | 0.00 | 86 | 1017.2 |
| 20260508091546 | 51 | 221 | 3.0 | 8.0 | 0.00 | 0.00 | 0.00 | 87 | 1017.2 |
| 20260508090107 | 50 | 105 | 2.0 | 6.0 | 0.00 | 0.00 | 0.00 | 89 | 1017.1 |
| 20260508084546 | 50 | 28 | 2.0 | 4.0 | 0.00 | 0.00 | 0.00 | 89 | 1017.2 |
| 20260508083040 | 50 | 13 | 1.0 | 2.0 | 0.00 | 0.00 | 0.00 | 88 | 1017.0 |
| 20260508081553 | 50 | 13 | 1.0 | 2.0 | 0.00 | 0.00 | 0.00 | 88 | 1017.0 |
| 20260508080039 | 50 | 13 | 0.0 | 1.0 | 0.00 | 0.00 | 0.00 | 87 | 1016.9 |
| 20260508074535 | 50 | 13 | 0.0 | 2.0 | 0.00 | 0.00 | 0.00 | 87 | 1017.0 |
| 20260508073042 | 50 | 13 | 0.0 | 2.0 | 0.00 | 0.00 | 0.00 | 86 | 1017.0 |
| 20260508071531 | 51 | 13 | 1.0 | 3.0 | 0.00 | 0.00 | 0.00 | 85 | 1017.1 |
| 20260508070029 | 51 | 14 | 0.0 | 3.0 | 0.00 | 0.00 | 0.00 | 85 | 1017.2 |
| 20260508064531 | 51 | 14 | 0.0 | 2.0 | 0.00 | 0.00 | 0.00 | 85 | 1017.2 |
| 20260508063028 | 52 | 14 | 1.0 | 2.0 | 0.00 | 0.00 | 0.00 | 83 | 1017.2 |
| 20260508061533 | 52 | 14 | 1.0 | 3.0 | 0.00 | 0.00 | 0.00 | 81 | 1017.1 |
| 20260508060027 | 52 | 14 | 1.0 | 2.0 | 0.00 | 0.00 | 0.00 | 81 | 1017.0 |
| 20260508054533 | 52 | 14 | 2.0 | 4.0 | 0.00 | 0.00 | 0.00 | 81 | 1017.1 |
| 20260508053032 | 52 | 11 | 2.0 | 3.0 | 0.00 | 0.00 | 0.00 | 80 | 1017.2 |
| 20260508051525 | 53 | 360 | 2.0 | 3.0 | 0.00 | 0.00 | 0.00 | 79 | 1017.2 |
| 20260508050025 | 54 | 360 | 1.0 | 3.0 | 0.00 | 0.00 | 0.00 | 78 | 1017.2 |
| 20260508044524 | 54 | 360 | 1.0 | 3.0 | 0.00 | 0.00 | 0.00 | 76 | 1017.3 |
| 20260508043023 | 55 | 360 | 1.0 | 3.0 | 0.00 | 0.00 | 0.00 | 74 | 1017.3 |
| 20260508041524 | 56 | 360 | 2.0 | 3.0 | 0.00 | 0.00 | 0.00 | 73 | 1017.3 |
| 20260508040022 | 58 | 355 | 1.0 | 2.0 | 0.00 | 0.00 | 0.00 | 71 | 1017.3 |
| 20260508034536 | 59 | 355 | 1.0 | 2.0 | 0.00 | 0.00 | 0.00 | 70 | 1017.2 |
| 20260508033021 | 60 | 355 | 1.0 | 3.0 | 0.00 | 0.00 | 0.00 | 71 | 1017.1 |
| 20260508031520 | 61 | 355 | 2.0 | 3.0 | 0.00 | 0.00 | 0.00 | 69 | 1017.2 |
| 20260508030020 | 62 | 355 | 0.0 | 3.0 | 0.00 | 0.00 | 0.00 | 61 | 1017.2 |
| 20260508024542 | 62 | 355 | 1.0 | 4.0 | 0.00 | 0.00 | 0.00 | 61 | 1017.2 |
| 20260508023016 | 63 | 347 | 0.0 | 1.0 | 0.00 | 0.00 | 0.00 | 61 | 1017.4 |
| 20260508021521 | 64 | 347 | 0.0 | 3.0 | 0.00 | 0.00 | 0.00 | 61 | 1017.4 |
| 20260508020015 | 65 | 347 | 1.0 | 5.0 | 0.00 | 0.00 | 0.00 | 64 | 1017.5 |
| 20260508014517 | 65 | 342 | 2.0 | 3.0 | 0.00 | 0.00 | 0.00 | 56 | 1017.5 |
| 20260508013015 | 66 | 342 | 0.0 | 3.0 | 0.00 | 0.00 | 0.00 | 60 | 1017.7 |
| 20260508011513 | 67 | 342 | 2.0 | 4.0 | 0.00 | 0.00 | 0.00 | 57 | 1017.8 |
| 20260508010011 | 67 | 341 | 2.0 | 3.0 | 0.00 | 0.00 | 0.00 | 59 | 1018.0 |
| 20260508004516 | 67 | 340 | 2.0 | 4.0 | 0.00 | 0.00 | 0.00 | 54 | 1018.2 |
| 20260508003008 | 66 | 336 | 2.0 | 3.0 | 0.00 | 0.00 | 0.00 | 60 | 1018.2 |
| 20260508001517 | 66 | 334 | 1.0 | 4.0 | 0.00 | 0.00 | 0.00 | 59 | 1018.4 |
| 20260508000004 | 67 | 355 | 2.0 | 4.0 | 0.00 | 0.00 | 0.00 | 55 | 1018.5 |